COSMOS 1275 DEB, 12690

Orbit data source: Space-Track

COSMOS 1275 DEB, 12690 is space debris in LEO originally from a launch on Thu, 04 Jun 1981 UTC launched from the Plesetsk Missile And Space Complex (PKMTR). Debris objects in space refer to the collection of defunct objects orbiting the Earth. Examples of debris include non-operational satellites, rocket bodies, and fragments generated from explosions, collisions, or faulty payload assembly.

Loading next visibility...
COSMOS 1275 DEB details
Identifier
12690, 1981-053AJ
Orbit
LEO
Last TLE update10 hours ago
Origin
Flag of CISVMF (CIS)
ManufacturerUnknown
MissionSpacecraft
Bus & MotorUnknown
MassUnknown
Launch date (UTC)
1981-06-04 (44 years ago)
Launch vehicleUnknown
Launch site
Plesetsk Missile And Space Complex (PKMTR)
Object type
Payload
Rocket body
Debris
Shape & HBRUnknown
Radar Cross SectionMedium (>0.1 m² and <1 m²)

Expand to show TLE details & history

TLE from 10 hours ago
0 COSMOS 1275 DEB
1 12690U 81053AJ  25025.44327955  .00002779  00000-0  23776-2 0  9990
2 12690  82.9533 356.9976 0093287 112.9504   5.0547 13.84640554173817
Epoch: 2025-01-25T10:38Z
Definitive object data (Epoch: 2025-01-25T10:38:19.353Z)
Latitude61.19284°
Longitude-120.4956°
Altitude889.851 km
Speed7.447 km/s
True Right ascension10h 56m 18s
True Declination61° 03' 00"
Sunlit
Object was in full shadow at TLE epoch
Visualization TLE readout
Latitude-52.15071°
Longitude63.01889°
Altitude1,033.461 km
Speed7.301 km/s
Apparent Right ascension05h 01m 15s
Apparent Declination-78° 37' 52"
Sunlit
Object is in daylight
Visualization observer readout
Local Sidereal Time21:34:32
Azimuth165.439° S
Elevation-43.229°
Doppler factor1
Orbital elements
Apogee altitude1,012.92 km
Perigee altitude876.296 km
Semi-major axis7,322.745 km
Eccentricity0.0093287
Inclination82.9533°
RAAN356.9976°
Arg. of periapsis112.9504°
True anomaly5.14999°
Mean anomaly5.0547°
Eccentric anomaly5.10223°
Mean motion3.46364 °/min
BSTAR0.0023776
Orbital period103.94 mins
Loading maneuver chart data...
Loading historical data...
Loading historical data...
Loading historical data...
Loading historical data...
Loading historical data...
Loading historical data...
Loading historical data...

COSMOS 1275 DEB Visibility forecast

Observer location: undefined°, undefined

Span
Click to sort rows by Start time (UTC) header in descending order
Start Az.
Max El. time (UTC)
Max El. Az.
Max El.
End time (UTC)
End Az.
10 mins2025-01-25 22:19:28.376Z166.828° S2025-01-25 22:24:28.376Z91.319° ESE39.926°2025-01-25 22:29:28.376Z17.455° NNE
7 mins2025-01-26 00:06:28.376Z253.043° W2025-01-26 00:09:28.376Z287.853° WNW18.566°2025-01-26 00:13:28.376Z332.677° NNW
8 mins2025-01-26 09:13:28.376Z19.853° NNE2025-01-26 09:16:28.376Z68.301° E32.476°2025-01-26 09:21:28.376Z142.811° SSE
7 mins2025-01-26 10:58:28.376Z313.575° NW2025-01-26 11:01:28.376Z271.361° WNW23.171°2025-01-26 11:05:28.376Z223.586° SW
|